Location: Unspecified
(0.0000°N, 0.0000°E)
Time: 05:30:24
(UTC+01:00)

ISS - All Passes

Search period start: 11 February 2016 00:00
Search period end: 21 February 2016 00:00
Orbit: 399 x 408 km, 51.6° (Epoch: 10 February)

Date Brightness Start Highest point End Pass type
(mag) Time Alt. Az. Time Alt. Az. Time Alt. Az.
11 Feb - 01:03:27 10° N 01:05:52 19° NE 01:08:17 10° ESE night (unlit)
11 Feb - 02:40:45 10° WSW 02:42:07 12° SW 02:43:29 10° SSW night (unlit)
11 Feb - 12:38:09 10° SSE 12:39:37 12° SE 12:41:05 10° E daylight
11 Feb - 14:13:27 10° WSW 14:15:52 19° NW 14:18:17 10° N daylight
12 Feb - 01:46:33 10° WNW 01:49:28 31° SW 01:52:24 10° S night (unlit)
12 Feb - 13:20:01 10° SW 13:23:14 54° NW 13:26:26 10° NNE daylight
13 Feb - 00:53:36 10° NNW 00:56:50 81° NE 01:00:05 10° SE night (unlit)
13 Feb - 12:27:26 10° SSW 12:30:35 44° SE 12:33:42 10° NE daylight
14 Feb - 00:01:24 10° N 00:04:10 26° NE 00:06:56 10° ESE night (unlit)
14 Feb - 11:35:43 10° SSE 11:37:53 16° SE 11:40:02 10° E daylight
14 Feb - 13:12:14 10° W 13:14:07 14° NW 13:16:00 10° NNW daylight
15 Feb - 00:45:02 10° WNW 00:47:41 23° SW 00:50:20 10° S night (unlit)
15 Feb - 12:18:19 10° SW 12:21:23 38° NW 12:24:27 10° NNE daylight
15 Feb - 23:51:44 10° NW 23:54:57 70° SW 23:58:11 10° SSE night (unlit)
16 Feb - 11:25:24 10° SSW 11:28:39 64° SE 11:31:53 10° NE daylight
16 Feb - 22:59:13 10° NNW 23:02:11 35° NE 23:05:11 10° ESE night (unlit)
17 Feb - 10:33:17 10° S 10:35:52 21° SE 10:38:27 10° ENE daylight
17 Feb - 12:11:08 10° WNW 12:12:06 11° NW 12:13:04 10° NW daylight
17 Feb - 22:07:46 10° NNE 22:09:24 13° NE 22:11:02 10° E night (unlit)
17 Feb - 23:43:22 10° W 23:45:38 17° SW 23:47:53 10° S night (unlit)
18 Feb - 11:16:25 10° WSW 11:19:17 28° NW 11:22:09 10° N daylight
18 Feb - 22:49:39 10° NW 22:52:47 49° SW 22:55:57 10° SSE night (unlit)
19 Feb - 10:23:10 10° SW 10:26:27 90° ESE 10:29:43 10° NE daylight
19 Feb - 21:56:50 10° NNW 21:59:57 48° NE 22:03:06 10° SE night (unlit)
20 Feb - 09:30:43 10° S 09:33:35 28° SE 09:36:27 10° ENE daylight
20 Feb - 21:04:52 10° N 21:07:05 17° NE 21:09:18 10° E night (unlit)
20 Feb - 22:41:37 10° W 22:43:18 13° SW 22:45:00 10° SSW night (unlit)
